Flag for Slovakia Weather past 2 weeks in Bratislava, Slovakia

Now
66 °F

Passing clouds.


Feels Like: 66 °F
Forecast: 50 / 64 °F
Wind: 7 mph from Northeast

Location: Bratislava Ivanka

Current Time: Aug 23, 2014 at 10:31:48 AM

Latest Report: Aug 23, 2014 at 10:00 AM


Visibility: N/A

Pressure: 30.01 "Hg

Humidity: 78%

Dew point: 59 °F

Location of BratislavaLocation

Historic Weather in Bratislava — Graph

°F

Bratislava temperature yesterday

Maximum temperature yesterday: 72 °F (at 4:30 PM)
Minimum temperature yesterday: 50 °F (at 4:00 AM)
Average temperature yesterday: 61 °F

Past Weeks' High & Low Weather Summary

 TemperatureHumidityPressure
High86 °F (Aug 9, 2:30 PM)94% (Aug 9, 5:00 AM)30.09 "Hg (Aug 9, 5:00 AM)
Low50 °F (Aug 18, 6:00 AM)35% (Aug 8, 4:30 PM)29.62 "Hg (Aug 13, 10:00 PM)
Average67 °F71%29.95 "Hg
* Reported Aug 8 9:00 AM — Aug 23 9:30 AM, Bratislava, Weather by CustomWeather, © 2014

Note: Actual official high and low records may vary slightly from our data, if they occured in-between our weather recording intervals... More about our weather records

Advertising

Bratislava weather history for previous 24 hours

 ConditionsComfort  
Time TempWeatherWind HumidityBarometerVisibility
9:30 AM
Aug 23
64 °FPassing clouds.5 mph78%30.01 "HgN/A
9:00 AM64 °FPassing clouds.5 mph78%30.01 "HgN/A
8:30 AM61 °FPassing clouds.5 mph88%30.01 "HgN/A
8:00 AM61 °FSunny.5 mph88%30.01 "Hg10 mi
7:30 AM61 °FSunny.5 mph88%30.01 "Hg10 mi
7:00 AM57 °FSunny.6 mph94%29.98 "Hg10 mi
6:30 AM57 °FFog.2 mph94%29.98 "HgN/A
6:00 AM55 °FFog.3 mph94%29.98 "HgN/A
5:30 AM57 °FFog.No wind94%29.98 "HgN/A
5:00 AM59 °FClear.2 mph88%29.98 "Hg10 mi
4:30 AM57 °FClear.6 mph94%29.98 "Hg10 mi
4:00 AM59 °FPassing clouds.3 mph88%29.98 "HgN/A
3:30 AM59 °FPassing clouds.5 mph94%30.01 "HgN/A
3:00 AM59 °FPassing clouds.2 mph94%29.98 "HgN/A
2:30 AM61 °FPassing clouds.3 mph88%29.98 "HgN/A
2:00 AM59 °FPassing clouds.3 mph94%30.01 "HgN/A
1:30 AM59 °FLight rain. Passing clouds.1 mph94%30.01 "HgN/A
1:00 AM59 °FPassing clouds.1 mph88%30.01 "HgN/A
12:30 AM61 °FPassing clouds.3 mph83%30.01 "HgN/A
12:00 AM61 °FClear.No wind83%30.01 "Hg10 mi
11:30 PM
Aug 22
61 °FClear.1 mph83%30.01 "Hg10 mi
11:00 PM61 °FClear.3 mph83%30.01 "Hg10 mi
10:30 PM61 °FClear.3 mph83%30.01 "Hg10 mi
10:00 PM61 °FPassing clouds.2 mph83%30.01 "HgN/A
9:30 PM63 °FPassing clouds.3 mph77%30.01 "HgN/A
9:00 PM63 °FPassing clouds.2 mph77%30.01 "HgN/A
8:30 PM63 °FPassing clouds.5 mph77%29.98 "HgN/A
8:00 PM64 °FPassing clouds.6 mph73%29.98 "HgN/A
7:30 PM68 °FPassing clouds.6 mph64%29.98 "HgN/A
7:00 PM68 °FPassing clouds.5 mph60%29.98 "HgN/A
6:30 PM70 °FPassing clouds.7 mph57%29.98 "HgN/A
6:00 PM70 °FPassing clouds.8 mph53%29.98 "HgN/A
5:30 PM72 °FPassing clouds.8 mph53%30.01 "HgN/A
5:00 PM72 °FScattered clouds.6 mph53%30.01 "HgN/A
4:30 PM72 °FBroken clouds.7 mph50%30.01 "HgN/A
4:00 PM70 °FBroken clouds.6 mph57%30.01 "HgN/A
3:30 PM70 °FBroken clouds.8 mph57%30.04 "HgN/A
3:00 PM70 °FPartly sunny.5 mph60%30.04 "HgN/A
2:30 PM68 °FBroken clouds.5 mph60%30.04 "HgN/A
2:00 PM68 °FBroken clouds.6 mph60%30.04 "HgN/A
1:30 PM68 °FPartly sunny.6 mph60%30.04 "HgN/A
1:00 PM66 °FPartly sunny.7 mph64%30.07 "HgN/A
12:30 PM64 °FBroken clouds.6 mph68%30.07 "HgN/A
12:00 PM64 °FBroken clouds.7 mph68%30.07 "HgN/A
11:30 AM63 °FScattered clouds.6 mph73%30.07 "HgN/A
11:00 AM61 °FBroken clouds.6 mph77%30.09 "HgN/A
10:30 AM59 °FBroken clouds.7 mph77%30.09 "HgN/A
10:00 AM59 °FLight rain. Broken clouds.7 mph82%30.09 "HgN/A
Weather by CustomWeather, © 2014

See weather overviewHow to use our weather pages